Simultaneous Nadir Overpasses (SNOs) Predictions

Prediction of SNOs between GOES-15 and LANDSAT-8 Satellite Orbit:

Table of predicted SNOs for the next 14.0 days since TLE Epoch: 5/14/2022
Index Date Time (GOES-15) GOES-15 Lat,Lon LANDSAT-8 Lat,Lon Distance(km) Time Diff (sec)
1 05/15/2022 18:33:11 -0.19,-127.75 -0.75,-125.02 309.66 80
2 05/16/2022 06:54:34 0.18,-127.67 -0.37,-130.21 289.12 80
3 05/18/2022 06:39:43 0.19,-127.59 0.24,-127.25 38.16 80
4 05/20/2022 06:27:32 0.20,-127.50 0.87,-124.29 364.69 80
5 05/20/2022 18:48:48 -0.19,-127.53 0.21,-129.45 217.71 80
6 05/22/2022 18:39:17 -0.20,-127.45 -0.43,-126.49 108.94 80
7 05/23/2022 07:00:40 0.19,-127.37 -0.74,-131.67 489.53 80
8 05/24/2022 18:27:05 -0.21,-127.36 -1.02,-123.53 435.73 80
9 05/25/2022 06:48:29 0.20,-127.28 -0.09,-128.71 162.72 80
10 05/27/2022 06:33:37 0.20,-127.19 0.51,-125.75 163.98 80
11 05/27/2022 18:54:53 -0.19,-127.22 0.56,-130.91 418.95 80
